Location: Bohy
(49.9380°N, 13.5753°E)
Time: 23:42:57
(UTC+00:00)

Cosmos 1536 - Pass Details

Date: 19 May 2025
Orbit: 494 x 518 km, 82.5° (Epoch: 15 June)

Event Time Altitude Azimuth Distance (km) Brightness Sun altitude
Rises 21:30:46 0° 345° (NNW) 2,642 8.0 -17.2°
Reaches altitude 10° 21:32:58 10° 340° (NNW) 1,746 6.7 -17.3°
Maximum altitude 21:36:39 49° 266° (W) 665 3.3 -17.6°
Enters shadow 21:38:08 31° 209° (SSW) 921 3.6 -17.7°
